Regional Weather Roundup
Issued by NWS Huntsville, AL

Home | Current Version | Previous Version | Text Only | Print | Product List | Glossary On
Versions: 1 2 3 4 5 6 7 8 9 10 11 12 13 14 15 16 17 18 19 20 21 22 23 24 25 26 27 28 29 30 31 32 33 34 35 36 37 38 39 40 41 42 43 44 45 46 47 48 49 50
000
ASUS44 KHUN 010324
RWRHUN

WEATHER ROUNDUP FOR THE TENNESSEE VALLEY
NATIONAL WEATHER SERVICE HUNTSVILLE AL
1000 PM CDT THU JUL 31 2014

ALZ001>004-010400-
NORTHWEST ALABAMA

CITY           SKY/WX    TMP DP  RH WIND       PRES   REMARKS
COURTLAND HCN    N/A     68 N/A N/A CALM        N/A
RUSSELLVILLE     N/A     66 N/A N/A MISG        N/A
SHOALS AIRPORT MOCLDY    70  64  81 CALM      30.07R
SHOALS TVA RES   N/A     70 N/A N/A MISG        N/A
$$

ALZ005>007-016-010400-
NORTH CENTRAL ALABAMA

CITY           SKY/WX    TMP DP  RH WIND       PRES   REMARKS
CULLMAN AG STN   N/A     64 N/A N/A CALM        N/A
DECATUR AP     PTCLDY    63  61  93 SE3       30.07R
HUNTSVILLE AP  PTCLDY    72  64  76 E3        30.06R
HUN NWS/UAH      N/A     72  62  71 CALM        N/A
MERIDIANVILLE  PTCLDY    64  59  82 CALM      30.07S
VINEMONT AP    FAIR      64  63  96 CALM      30.09S
$$

ALZ008>010-010400-
NORTHEAST ALABAMA

CITY           SKY/WX    TMP DP  RH WIND       PRES   REMARKS
ALBERTVILLE    PTCLDY    68  68 100 E5        30.08R
CROSSVILLE       N/A     68 N/A N/A CALM        N/A
FORT PAYNE     MOCLDY    70  61  73 CALM      30.08F
SCOTTSBORO AP    N/A     68  66  94 CALM      30.08F
SCOTTSBORO HCN   N/A     68 N/A N/A MISG        N/A
VALLEY HEAD      N/A     68 N/A N/A MISG        N/A
$$

TNZ076-096-097-010400-
SOUTHEASTERN MIDDLE TENNESSEE

CITY           SKY/WX    TMP DP  RH WIND       PRES   REMARKS
FAYETTEVILLE   CLEAR     66  57  72 NE8G20    30.08S
TULLAHOMA      CLEAR     64  61  88 CALM      30.10S
WINCHESTER     CLEAR     64  61  88 CALM      30.09S
$$

...SURROUNDING SITES...

CITY           SKY/WX    TMP DP  RH WIND       PRES   REMARKS
ATLANTA        LGT RAIN  69  66  90 NE12      30.10R
ANNISTON       MOCLDY    74  67  78 E9        30.07R
BIRMINGHAM     MOCLDY    73  65  75 CALM      30.07R
CHATTANOOGA    CLOUDY    73  65  75 CALM      30.08S
CORINTH          N/A     68  66  94 CALM      30.05S
DALTON         CLOUDY    70  68  94 CALM      30.10S
GADSDEN        PTCLDY    72  64  78 E9        30.06S
GOLDEN TRNGL   CLOUDY    70  63  78 CALM      30.05S
HALEYVILLE     FAIR      65  63  93 CALM      30.09S
JACKSON TN     MOCLDY    70  66  87 CALM      30.07R
MEMPHIS        CLOUDY    74  66  76 N5        30.06S
NASHVILLE      PTCLDY    73  61  65 CALM      30.07R
OXFORD MS      FAIR      72  66  83 CALM      30.08R
ROME           CLOUDY    72  67  84 SE3       30.09R
SAVANNAH       CLEAR     66  66 100 CALM      30.07S
TUPELO         PTCLDY    71  65  81 NE3       30.04S
TUSCALOOSA     MOCLDY    70  62  76 CALM      30.04R
$$

...GULF COAST WEATHER...

CITY           SKY/WX    TMP DP  RH WIND       PRES   REMARKS
GULFPORT       PTCLDY    80  66  62 N6        29.99R
PASCAGOULA     PTCLDY    71  68  90 CALM      30.00R
MOBILE         PTCLDY    72  66  81 CALM      30.01S
GULF SHORES    MOCLDY    74  67  79 CALM      30.00S
PENSACOLA      MOCLDY    77  64  64 W5        29.99R
DESTIN         PTCLDY    82  68  62 CALM      30.00R
PANAMA CITY    PTCLDY    74  67  79 CALM      30.00
APPALACHICOLA  CLEAR     70  65  84 NW5       29.99R
$$



USA.gov is the U.S. government's official web portal to all federal, state and local government web resources and services.